Wildwood, NJ

10:43 PM EDT on October 19, 2017 (GMT -0400)
Cape May County

Weather History for KWWD - November, 2011

Change the Weather History Date:

Friday, November 25, 2011

  Actual Average Record
Temperature  
Mean Temperature 54 °F -  
Max Temperature 64 °F 51 °F 68 °F (2004)
Min Temperature 44 °F 38 °F 24 °F (2000)
Degree Days  
Heating Degree Days 11    
Growing Degree Days 4 (Base 50)    
Moisture  
Dew Point 38 °F    
Average Humidity 58    
Maximum Humidity 76    
Minimum Humidity 32    
Precipitation  
Precipitation 0.00 in - - ()
Sea Level Pressure  
Sea Level Pressure 30.24 in    
Wind  
Wind Speed 7 mph (WSW)    
Max Wind Speed 12 mph    
Max Gust Speed 16 mph    
Visibility 10 miles    
Events      
Averages and records for this station are not official NWS values.
T = Trace of Precipitation, MM = Missing Value Source: NWS Daily Summary

Daily Weather History Graph

Daily Weather History Graph

Search for Another Location

Airport or City:

Trip Planner

Search our weather history database for the weather conditions in past years. The results will help you decide how hot, cold, wet, or windy it might be!

Date:

Astronomy

Nov. 25, 2011 Rise Set
Actual Time 6:53 AM EST 4:39 PM EST
Civil Twilight 6:23 AM EST 5:08 PM EST
Nautical Twilight 5:51 AM EST 5:41 PM EST
Astronomical Twilight 5:19 AM EST 6:13 PM EST
Moon 7:17 AM EST (11/25) 5:05 PM EST (11/25)
Length of Visible Light 10h 44m
Length of Day
9h 46m
New Moon, 0% of the Moon is Illuminated
Nov 25
New Moon
Dec 2
First Quarter
Dec 10
Full
Dec 17
Last Quarter
Dec 24
New

Hourly Weather History & Observations

Time (EST) Temp. Windchill Dew Point Humidity Pressure Visibility Wind Dir Wind Speed Gust Speed Precip Events Conditions
12:15 AM 51.8 °F - 37.4 °F 58% 30.25 in 10.0 mi West 9.2 mph - N/A   Clear
12:35 AM 51.8 °F - 37.4 °F 58% 30.25 in 10.0 mi West 8.1 mph - N/A   Clear
12:55 AM 51.8 °F - 37.4 °F 58% 30.24 in 10.0 mi West 10.4 mph - N/A   Clear
1:15 AM 51.8 °F - 35.6 °F 54% 30.24 in 10.0 mi West 10.4 mph 16.1 mph N/A   Clear
2:15 AM 50.0 °F - 37.4 °F 62% 30.25 in 10.0 mi WSW 9.2 mph - N/A   Clear
2:35 AM 50.0 °F - 37.4 °F 62% 30.26 in 10.0 mi West 9.2 mph - N/A   Clear
2:55 AM 50.0 °F - 37.4 °F 62% 30.26 in 10.0 mi West 8.1 mph - N/A   Clear
3:15 AM 50.0 °F - 37.4 °F 62% 30.26 in 10.0 mi WSW 6.9 mph - N/A   Clear
3:35 AM 50.0 °F - 37.4 °F 62% 30.26 in 10.0 mi West 6.9 mph - N/A   Clear
3:55 AM 48.2 °F - 37.4 °F 66% 30.25 in 10.0 mi West 6.9 mph - N/A   Clear
4:15 AM 48.2 °F - 37.4 °F 66% 30.25 in 10.0 mi WSW 5.8 mph - N/A   Clear
4:35 AM 48.2 °F - 37.4 °F 66% 30.25 in 10.0 mi WSW 6.9 mph - N/A   Clear
5:35 AM 46.4 °F 43.5 °F 37.4 °F 71% 30.26 in 10.0 mi WSW 5.8 mph - N/A   Clear
5:55 AM 46.4 °F 43.5 °F 37.4 °F 71% 30.26 in 10.0 mi WSW 5.8 mph - N/A   Clear
6:15 AM 48.2 °F - 37.4 °F 66% 30.27 in 10.0 mi WSW 5.8 mph - N/A   Clear
6:35 AM 46.4 °F 43.5 °F 37.4 °F 71% 30.27 in 10.0 mi West 5.8 mph - N/A   Clear
6:55 AM 44.6 °F 42.2 °F 35.6 °F 71% 30.28 in 10.0 mi West 4.6 mph - N/A   Clear
7:15 AM 44.6 °F 41.4 °F 37.4 °F 76% 30.28 in 10.0 mi West 5.8 mph - N/A   Clear
7:35 AM 46.4 °F 43.5 °F 37.4 °F 71% 30.28 in 10.0 mi West 5.8 mph - N/A   Clear
7:55 AM 48.2 °F - 39.2 °F 71% 30.29 in 10.0 mi West 5.8 mph - N/A   Clear
8:15 AM 51.8 °F - 39.2 °F 62% 30.29 in 10.0 mi West 6.9 mph - N/A   Clear
8:55 AM 51.8 °F - 39.2 °F 62% 30.29 in 10.0 mi West 6.9 mph - N/A   Clear
9:15 AM 53.6 °F - 39.2 °F 58% 30.29 in 10.0 mi West 9.2 mph - N/A   Clear
9:35 AM 53.6 °F - 39.2 °F 58% 30.29 in 10.0 mi West 8.1 mph - N/A   Clear
9:55 AM 53.6 °F - 37.4 °F 54% 30.29 in 10.0 mi West 6.9 mph - N/A   Clear
10:15 AM 55.4 °F - 37.4 °F 51% 30.29 in 10.0 mi WNW 9.2 mph - N/A   Clear
10:35 AM 55.4 °F - 37.4 °F 51% 30.28 in 10.0 mi WNW 11.5 mph - N/A   Clear
10:55 AM 55.4 °F - 37.4 °F 51% 30.27 in 10.0 mi WNW 8.1 mph - N/A   Clear
11:15 AM 57.2 °F - 37.4 °F 48% 30.26 in 10.0 mi West 10.4 mph - N/A   Clear
11:55 AM 57.2 °F - 35.6 °F 44% 30.25 in 10.0 mi West 10.4 mph - N/A   Clear
12:35 PM 60.8 °F - 35.6 °F 39% 30.23 in 10.0 mi West 10.4 mph - N/A   Clear
12:55 PM 60.8 °F - 35.6 °F 39% 30.22 in 10.0 mi West 9.2 mph - N/A   Clear
1:15 PM 62.6 °F - 33.8 °F 34% 30.22 in 10.0 mi West 9.2 mph - N/A   Clear
1:35 PM 62.6 °F - 33.8 °F 34% 30.21 in 10.0 mi West 5.8 mph - N/A   Clear
1:55 PM 62.6 °F - 33.8 °F 34% 30.21 in 10.0 mi WSW 6.9 mph - N/A   Clear
2:35 PM 64.4 °F - 35.6 °F 34% 30.20 in 10.0 mi WSW 8.1 mph - N/A   Clear
2:55 PM 64.4 °F - 33.8 °F 32% 30.20 in 10.0 mi WSW 5.8 mph - N/A   Clear
3:15 PM 64.4 °F - 35.6 °F 34% 30.20 in 10.0 mi SW 6.9 mph - N/A   Clear
3:35 PM 64.4 °F - 37.4 °F 37% 30.20 in 10.0 mi SSW 4.6 mph - N/A   Clear
4:15 PM 60.8 °F - 41.0 °F 48% 30.20 in 10.0 mi South 5.8 mph - N/A   Clear
4:35 PM 57.2 °F - 42.8 °F 59% 30.20 in 10.0 mi South 4.6 mph - N/A   Clear
4:55 PM 53.6 °F - 41.0 °F 62% 30.20 in 10.0 mi Calm Calm - N/A   Clear
5:15 PM 53.6 °F - 42.8 °F 67% 30.20 in 10.0 mi Calm Calm - N/A   Clear
5:35 PM 51.8 °F - 41.0 °F 67% 30.20 in 10.0 mi Calm Calm - N/A   Clear
5:55 PM 51.8 °F - 41.0 °F 67% 30.20 in 10.0 mi Calm Calm - N/A   Clear
6:15 PM 50.0 °F - 41.0 °F 71% 30.20 in 10.0 mi Calm Calm - N/A   Clear
6:35 PM 48.2 °F - 39.2 °F 71% 30.20 in 10.0 mi Calm Calm - N/A   Clear
6:55 PM 48.2 °F - 39.2 °F 71% 30.20 in 10.0 mi SW 4.6 mph - N/A   Clear
7:15 PM 51.8 °F - 39.2 °F 62% 30.21 in 10.0 mi SW 5.8 mph - N/A   Clear
7:35 PM 51.8 °F - 37.4 °F 58% 30.21 in 10.0 mi SW 5.8 mph - N/A   Clear
7:55 PM 51.8 °F - 37.4 °F 58% 30.21 in 10.0 mi SW 8.1 mph - N/A   Clear
8:35 PM 50.0 °F - 37.4 °F 62% 30.21 in 10.0 mi SW 6.9 mph - N/A   Clear
9:15 PM 48.2 °F - 37.4 °F 66% 30.21 in 10.0 mi SSW 5.8 mph - N/A   Clear
9:35 PM 48.2 °F - 37.4 °F 66% 30.21 in 10.0 mi SSW 6.9 mph - N/A   Clear
9:55 PM 48.2 °F - 37.4 °F 66% 30.22 in 10.0 mi SW 6.9 mph - N/A   Clear
10:15 PM 48.2 °F - 39.2 °F 71% 30.22 in 10.0 mi SW 8.1 mph - N/A   Clear
10:35 PM 48.2 °F - 37.4 °F 66% 30.22 in 10.0 mi SW 8.1 mph - N/A   Clear
10:55 PM 50.0 °F - 37.4 °F 62% 30.22 in 10.0 mi SW 6.9 mph - N/A   Clear
11:15 PM 50.0 °F - 37.4 °F 62% 30.21 in 10.0 mi SW 8.1 mph - N/A   Clear
11:35 PM 48.2 °F - 37.4 °F 66% 30.21 in 10.0 mi SW 5.8 mph - N/A   Clear
11:55 PM 48.2 °F - 37.4 °F 66% 30.21 in 10.0 mi SW 6.9 mph - N/A   Clear